Theta_e
300 304 309 318 317 317 336 336 337 338 336 337 335 333 331 329 328 331 333 324 334 342 345 346 344 344 343 342 340 339 339 339 339 339 339 337 335 334 331 331 331 329 327
300 304 307 312 317 316 317 336 336 336 335 336 334 332 331 329 329 331 332 330 330 337 342 344 344 343 342 342 341 340 339 340 339 336 335 334 333 330 329 328 327 326 325
299 300 302 307 316 318 314 320 335 336 334 335 333 331 330 328 329 330 331 333 332 329 334 339 340 338 340 338 340 340 340 338 336 334 333 332 330 328 327 326 325 324 322
299 298 301 304 310 317 315 312 332 333 332 333 332 330 329 328 328 330 330 331 333 334 331 334 337 338 339 338 338 337 338 336 334 332 331 329 328 326 325 324 323 321 319
298 297 297 299 307 313 319 317 324 332 331 331 331 330 328 327 327 329 329 330 331 332 333 329 328 330 335 338 336 334 333 334 333 330 328 327 325 324 323 322 321 319 318
297 297 298 300 302 304 309 317 315 325 331 331 329 327 327 327 326 328 328 329 329 329 329 329 328 325 327 333 334 333 333 330 330 328 326 325 323 322 321 320 319 318 317
297 298 298 297 297 297 302 312 317 313 328 331 314 307 305 322 324 325 327 326 325 324 325 325 324 321 325 329 332 333 331 330 328 326 325 321 322 320 320 319 318 317 316
296 297 296 296 296 296 299 306 315 315 317 325 320 314 302 305 306 309 323 323 322 322 321 321 320 320 323 325 324 330 331 329 327 324 321 322 320 319 318 318 318 317 316
294 296 296 297 297 298 299 301 309 317 313 312 309 307 300 301 302 301 307 317 319 319 319 320 318 318 319 321 321 326 326 327 325 322 321 320 318 318 318 317 316 315 314
293 294 295 295 295 297 299 302 306 309 316 314 304 303 303 302 301 298 300 301 312 316 317 317 317 316 318 319 316 315 316 321 321 321 320 319 318 318 317 316 315 314 313
291 292 294 294 294 295 295 297 299 312 317 316 308 300 300 300 301 301 299 298 301 302 314 316 316 315 314 317 318 314 314 317 317 317 318 318 318 317 316 315 314 313 312
288 290 292 293 295 295 294 296 300 308 316 318 310 304 303 302 300 301 301 299 301 297 300 307 311 311 310 311 310 308 311 315 317 316 316 316 317 317 316 314 313 312 311
286 289 292 293 294 295 295 295 297 304 315 313 308 308 308 307 304 302 304 297 293 294 297 299 304 308 307 308 307 304 306 313 315 315 314 315 316 316 315 313 312 311 309
285 287 290 292 293 295 296 296 298 302 315 313 311 312 312 311 309 306 304 298 292 290 293 297 296 304 308 308 304 300 310 308 313 314 314 314 314 314 314 313 311 309 308
284 286 288 291 292 293 295 297 301 306 313 314 312 312 310 308 309 310 307 306 303 291 292 294 297 299 302 307 304 307 309 302 310 312 312 312 312 312 312 312 309 308 306
283 285 286 288 290 292 293 293 294 300 311 314 311 310 308 308 309 307 307 309 308 304 299 292 294 298 300 302 300 306 305 301 305 309 309 309 310 310 310 309 307 305 304
282 283 285 286 288 289 291 292 293 298 309 311 307 307 307 308 308 308 307 309 308 307 299 287 289 293 294 298 298 301 299 304 307 303 306 307 307 307 306 306 305 304 302
281 282 284 286 287 289 291 292 292 299 307 307 306 306 304 306 307 307 306 306 307 306 292 288 287 290 294 296 296 295 295 295 296 301 304 305 305 304 303 304 303 302 300
279 281 284 285 287 288 290 291 298 302 305 307 305 305 302 304 303 304 304 304 303 298 296 291 287 288 289 294 291 290 290 291 292 298 303 302 302 302 302 301 300 298 296
278 280 282 285 287 288 290 290 294 300 304 303 303 304 302 303 303 303 301 301 298 293 293 292 291 293 292 291 295 292 288 288 289 291 293 294 297 298 299 299 297 294 294
278 280 281 283 287 289 291 290 293 298 301 300 300 301 301 301 298 301 301 300 297 294 293 291 290 290 290 291 292 293 292 289 286 287 287 287 288 289 290 294 292 292 293
278 280 282 284 286 290 292 292 294 296 296 297 296 298 299 293 296 297 299 299 300 295 293 292 291 290 291 293 292 292 289 289 286 286 286 285 286 285 285 286 291 292 292
278 280 282 285 287 287 293 295 295 296 296 297 297 296 295 297 296 299 297 296 295 296 296 296 292 292 290 293 292 290 290 291 286 286 289 284 285 284 284 286 291 291 291
279 281 283 284 288 289 292 296 294 297 296 296 296 296 295 293 296 296 294 294 292 294 294 293 295 294 293 294 293 293 291 285 285 286 286 283 282 282 283 283 290 291 292
283 283 284 286 288 291 293 295 295 295 295 294 295 295 295 294 293 294 293 291 289 288 292 293 295 294 295 294 292 289 288 288 283 283 283 282 281 280 282 281 284 292 292
285 286 286 289 290 292 293 295 295 293 291 292 292 293 289 295 293 294 293 290 289 288 288 288 290 291 292 291 291 293 291 289 283 282 284 280 281 282 280 282 282 285 287
Wind_Speed
5 5 6 6 4 6 9 10 13 13 13 14 13 14 12 11 10 6 5 16 18 22 23 24 24 22 22 22 19 16 17 15 15 15 16 16 16 14 13 13 13 13 11
4 5 7 8 6 4 8 11 12 13 13 14 13 14 15 11 11 9 7 11 18 20 22 23 22 22 20 19 19 20 19 19 16 15 14 15 15 13 13 12 12 12 11
5 6 7 8 7 5 7 9 10 13 12 13 15 14 13 14 12 12 10 9 11 19 19 21 21 22 19 19 19 19 20 19 16 16 15 15 14 14 12 12 12 12 11
6 6 7 7 7 6 5 5 11 13 12 14 12 13 12 13 14 13 11 11 10 10 13 19 19 20 20 20 20 20 19 19 19 17 15 14 14 13 13 13 13 12 11
8 6 7 8 9 6 6 8 7 14 14 13 13 11 12 12 14 12 13 14 13 11 10 14 17 15 19 20 22 21 20 19 19 18 16 13 14 14 13 13 13 13 11
9 8 8 9 6 5 6 7 4 13 14 14 12 11 12 11 11 13 13 11 11 12 12 13 11 9 15 20 21 22 20 21 19 18 16 15 14 15 14 14 13 12 11
10 10 8 8 7 5 6 9 9 11 12 16 8 5 4 9 15 13 12 12 13 12 13 12 9 6 9 16 21 22 23 21 17 18 17 14 13 14 15 14 14 12 11
11 11 10 9 9 7 6 9 11 8 8 9 9 9 4 2 4 2 12 12 14 11 11 14 13 11 10 9 12 21 24 22 20 17 16 16 16 15 14 14 13 12 10
13 11 11 9 8 6 6 6 10 11 8 3 7 5 4 4 1 4 2 8 13 11 11 13 13 12 11 7 8 15 21 21 21 18 18 17 17 16 15 13 12 11 10
11 12 13 12 11 8 7 5 8 11 9 6 5 4 3 6 4 3 3 3 5 11 13 10 12 11 12 8 9 13 17 19 21 19 17 17 17 16 15 13 11 10 9
12 13 11 10 12 9 9 8 9 13 11 10 6 7 0 5 2 3 5 3 4 2 6 11 11 9 8 8 7 10 17 20 20 22 18 16 16 16 15 13 11 10 8
9 15 15 13 12 11 10 9 10 14 12 11 7 6 7 6 5 2 3 3 6 3 2 3 9 7 6 5 6 13 17 22 21 20 21 16 16 16 16 14 12 10 8
11 12 12 10 10 11 11 9 10 12 12 9 12 10 10 10 7 3 3 4 5 0 2 4 0 7 5 5 3 8 15 23 23 22 20 21 16 16 16 14 12 10 8
11 13 14 12 12 10 10 10 9 10 13 10 15 12 12 11 14 7 7 3 5 2 2 3 2 6 9 9 7 8 9 16 23 21 20 21 19 15 14 14 12 11 10
13 16 16 14 13 12 12 12 7 11 13 13 12 14 10 8 9 11 12 13 7 4 3 3 3 2 5 10 11 7 6 16 22 24 18 18 22 20 15 13 13 12 10
17 16 17 17 16 13 12 11 10 12 14 11 10 13 11 9 11 12 12 13 11 6 5 2 3 4 5 5 10 9 6 13 18 25 22 17 18 21 19 17 14 12 10
17 18 17 16 16 14 12 11 12 13 17 13 12 14 15 16 11 11 12 12 13 9 6 1 2 3 4 7 6 6 6 5 10 14 19 20 18 18 18 18 16 13 11
17 18 18 18 18 16 15 13 13 14 16 16 15 16 14 12 15 14 12 12 12 14 7 7 2 3 4 9 6 8 4 4 4 15 19 19 18 18 18 17 14 13 11
20 19 19 19 17 16 15 15 12 15 15 17 16 17 16 17 15 12 13 12 9 4 5 9 5 3 4 7 6 5 5 5 4 6 14 18 17 17 15 16 14 14 12
20 21 20 18 19 17 15 15 12 9 15 11 16 16 16 18 19 17 14 14 9 9 9 11 6 7 5 4 7 11 6 3 4 3 9 8 9 11 14 14 13 12 11
19 19 18 19 17 16 12 15 12 12 12 13 14 14 16 17 20 20 13 14 15 10 9 10 8 6 6 9 13 6 7 7 3 2 4 4 3 4 3 9 8 10 9
19 18 18 18 18 12 21 23 17 12 10 14 12 11 12 12 18 23 21 22 19 16 12 10 8 12 12 12 7 11 9 9 5 2 4 3 4 2 3 3 9 9 8
18 18 19 17 18 13 21 22 21 13 12 15 14 13 10 10 16 17 18 21 19 21 22 16 17 16 14 15 13 10 11 9 5 5 7 4 2 4 2 3 7 9 10
17 17 19 18 16 13 21 22 23 15 13 14 15 15 15 14 15 17 16 13 11 12 12 7 13 14 12 15 17 13 13 7 8 5 2 5 2 3 2 1 9 9 10
13 13 15 17 16 12 23 23 21 14 15 13 14 15 16 17 20 25 18 15 12 6 8 10 12 16 20 21 17 13 11 12 5 2 0 5 4 4 2 1 0 12 12
9 10 13 12 12 13 19 25 23 10 11 11 12 13 18 20 27 26 18 18 15 11 12 11 10 11 18 18 24 15 14 13 7 3 4 5 6 5 3 1 1 3 6
Wind_Direction
293 295 291 281 255 301 237 206 200 196 190 184 187 186 188 188 183 180 184 191 175 173 177 179 180 177 177 168 164 170 168 171 165 157 145 140 129 136 149 143 131 127 119
283 290 293 289 271 247 298 224 205 195 193 183 187 191 189 187 183 181 183 194 173 175 176 177 177 180 175 163 166 176 178 169 166 142 138 133 137 152 151 139 133 129 142
279 285 288 291 280 267 261 291 207 197 194 188 190 191 190 186 184 180 180 183 189 173 178 175 189 191 188 182 175 172 162 165 149 148 147 143 155 162 154 148 143 142 146
267 282 286 282 285 278 259 281 249 193 191 187 187 193 195 190 184 180 178 178 186 182 172 168 178 183 184 182 182 170 164 159 152 152 150 157 170 167 156 152 148 148 149
263 260 270 271 278 291 277 247 296 206 193 194 186 186 192 196 186 177 180 182 180 179 171 176 171 181 182 181 183 179 176 162 158 153 155 170 174 169 163 160 156 155 153
259 258 264 263 265 275 287 281 280 286 208 192 187 175 185 194 195 184 180 176 175 178 166 168 172 177 179 184 186 181 173 177 161 153 159 173 179 176 168 164 160 160 156
263 260 260 266 272 257 262 278 264 243 223 188 133 92 51 220 185 192 178 177 175 177 171 163 166 160 183 187 186 186 178 171 165 160 169 182 182 181 170 165 164 161 158
268 261 256 257 260 266 255 263 261 265 271 220 179 148 131 31 337 187 177 175 177 175 178 167 166 167 177 187 191 181 174 172 172 178 185 175 179 177 174 170 167 161 159
262 262 263 254 255 245 241 243 266 248 235 250 60 107 118 165 144 359 109 176 169 177 176 173 170 168 166 176 180 172 173 166 165 175 176 177 179 176 174 171 167 164 159
265 260 256 256 256 254 250 231 250 250 234 223 98 41 103 125 153 173 46 17 174 178 174 176 168 175 169 166 173 162 160 163 162 167 178 179 180 178 174 171 168 165 160
258 261 258 257 252 250 247 232 250 264 234 221 193 139 105 75 23 151 154 158 67 10 181 173 164 164 159 160 160 164 165 159 165 161 168 179 181 182 177 171 170 164 161
248 248 251 249 252 250 242 238 250 253 235 218 177 171 155 136 130 190 116 120 131 22 34 96 144 138 134 143 156 160 163 162 166 165 163 173 178 177 175 172 170 164 159
248 251 248 244 242 245 245 235 243 260 228 195 180 174 146 145 133 191 75 117 103 5 282 60 335 133 129 128 143 154 167 168 170 168 171 163 171 171 171 171 169 160 152
246 245 251 249 249 244 240 235 240 246 231 193 188 171 163 162 140 137 125 172 84 26 353 168 69 158 164 151 152 156 169 173 164 168 175 164 162 161 161 166 165 157 148
240 242 244 247 244 250 248 245 243 246 229 193 193 178 170 161 145 147 156 164 163 148 199 234 131 196 190 156 159 157 167 174 170 167 173 171 161 154 153 159 163 158 157
241 240 237 239 242 244 246 245 245 257 229 195 178 179 167 159 167 149 164 164 156 162 159 147 201 165 185 150 157 154 158 168 176 171 164 168 162 152 150 154 161 162 156
238 235 236 236 238 234 238 241 237 242 236 206 162 177 169 167 168 163 158 184 160 162 153 225 122 177 143 156 147 133 144 151 156 144 155 149 152 147 152 154 158 158 155
236 234 234 233 233 235 234 235 233 231 231 183 179 172 171 165 163 180 163 183 177 165 134 150 151 127 157 165 146 121 110 55 106 153 151 146 149 156 153 152 147 144 141
235 232 229 229 227 229 232 231 239 224 228 191 174 175 170 171 164 173 172 173 167 162 172 140 143 133 103 154 116 84 93 77 62 104 150 146 154 143 145 130 144 128 128
227 228 228 225 223 225 229 227 222 212 203 194 174 177 171 176 166 178 176 170 157 145 131 129 116 141 143 140 158 153 130 88 101 76 67 86 118 128 128 145 128 136 140
221 221 220 226 223 221 221 219 211 208 199 191 179 172 180 180 175 175 166 168 160 148 142 137 134 144 156 155 169 169 146 128 57 109 93 67 80 73 120 107 126 137 147
215 216 218 214 219 219 217 217 200 198 205 178 180 176 178 166 167 169 173 165 171 159 158 144 155 169 171 171 153 164 154 150 139 265 110 91 83 79 85 111 142 148 161
207 211 215 214 210 220 214 208 189 187 178 179 184 174 163 170 169 169 165 161 165 174 169 166 166 174 166 171 152 154 176 161 129 153 120 101 102 116 85 117 151 154 166
202 206 210 209 208 221 216 201 185 182 182 183 179 175 171 160 168 158 152 155 155 171 165 156 160 169 161 167 169 168 154 112 83 104 125 106 159 93 113 82 149 157 168
192 198 210 206 205 220 210 195 179 181 190 178 176 172 170 166 164 156 152 147 138 119 108 117 137 154 157 155 147 129 151 146 115 134 356 114 152 115 91 52 26 162 150
190 195 198 201 198 213 194 191 182 173 171 171 164 169 168 168 163 158 152 150 148 153 127 110 111 126 141 149 156 164 158 158 131 114 208 106 139 136 132 202 224 100 117